Date,TemperatureHighF,TemperatureAvgF,TemperatureLowF,DewpointHighF,DewpointAvgF,DewpointLowF,HumidityHigh,HumidityAvg,HumidityLow,PressureMaxIn,PressureMinIn,WindSpeedMaxMPH,WindSpeedAvgMPH,GustSpeedMaxMPH,PrecipitationSumIn
2013-11-1,68,57,51,59,48,43,91,73,59,29.70,29.30,34,9,0,0.17
2013-11-2,51,46,42,46,44,41,94,90,81,30.02,29.68,10,3,0,0.17
2013-11-3,46,39,30,41,33,25,96,80,57,30.52,30.02,13,2,0,0.01
2013-11-4,44,36,27,27,23,19,84,61,38,30.61,30.47,13,4,0,0.00
2013-11-5,60,49,41,38,33,27,65,56,43,30.52,30.34,9,3,0,0.00
2013-11-6,69,56,44,57,46,31,95,69,55,30.34,29.90,19,6,0,0.09
2013-11-7,58,44,40,57,38,26,95,81,57,30.14,29.89,14,6,0,0.39
2013-11-8,41,37,32,33,30,27,90,75,60,30.33,30.11,14,5,0,0.01
2013-11-9,57,45,31,38,31,27,88,61,36,30.32,29.96,18,7,0,0.00
2013-11-10,53,45,39,40,33,29,74,65,56,30.30,29.97,24,9,0,0.00
2013-11-11,48,40,32,38,32,29,95,75,50,30.29,30.06,16,6,0,0.09
2013-11-12,33,30,27,30,26,22,96,86,67,30.53,30.20,13,5,0,0.17
2013-11-13,36,31,26,26,23,19,93,73,58,30.59,30.38,13,6,0,0.02
2013-11-14,48,38,28,23,22,19,74,53,34,30.37,30.18,19,8,0,0.02
2013-11-15,54,46,37,33,26,21,60,46,30,30.22,30.14,20,5,0,0.00
2013-11-16,58,51,41,50,43,33,86,76,61,30.25,30.01,11,4,0,0.00
2013-11-17,61,57,53,58,54,45,95,88,65,30.01,29.47,25,10,0,0.60
2013-11-18,53,45,37,43,35,27,80,68,58,30.11,29.61,25,12,0,0.00
2013-11-19,38,35,28,27,26,24,85,68,59,30.47,30.11,15,4,0,0.00
2013-11-20,47,36,26,25,20,15,90,58,29,30.53,30.39,14,5,0,0.00
2013-11-21,47,40,35,39,31,16,87,71,44,30.46,30.25,12,3,0,0.06
2013-11-22,51,46,36,50,44,32,96,91,72,30.31,30.11,16,4,0,0.09
2013-11-23,36,29,20,32,23,9,92,80,62,30.41,30.21,18,7,0,0.01
2013-11-24,22,20,16,18,12,8,88,70,60,30.60,30.42,17,7,0,0.00
2013-11-25,35,25,16,28,14,10,88,64,44,30.55,30.26,14,6,0,0.00
2013-11-26,34,32,30,33,30,28,96,93,90,30.27,29.84,7,2,0,0.07
2013-11-27,32,28,22,31,25,19,97,90,76,30.17,29.81,19,5,0,0.00
2013-11-28,27,23,16,23,18,12,88,81,67,30.49,30.18,9,4,0,0.00
2013-11-29,34,27,20,24,22,18,92,81,60,30.72,30.49,5,1,0,0.22
2013-11-30,38,30,22,27,23,19,86,77,63,30.68,30.26,12,5,0,0.04